Theta_e
354 358 356 358 357 357 355 356 357 356 355 357 358 356 358 359 359 358 360 361 362 359 362 362 363 362 368 366 364 361 364 362 366 362 363 361 361 362 361 357 356 354
355 357 359 358 358 361 357 357 356 354 355 355 356 356 360 361 360 363 360 361 362 362 363 362 363 362 364 365 363 359 362 363 360 365 362 363 362 360 358 357 357 362
356 356 356 355 356 358 360 357 356 355 355 357 356 356 359 361 360 360 361 362 359 361 363 364 364 365 364 364 364 363 365 363 358 360 358 359 362 361 361 361 356 358
356 356 356 355 354 356 356 356 355 356 356 353 354 360 357 360 358 357 361 367 358 358 362 362 363 364 363 364 364 363 361 363 364 362 362 363 363 364 361 360 362 359
356 356 355 354 353 355 355 354 353 355 353 353 353 354 356 355 357 356 361 361 359 360 360 361 360 361 363 362 364 361 361 359 361 361 360 357 361 365 364 361 359 358
356 356 356 354 353 354 354 353 353 353 353 353 352 353 353 360 355 356 359 358 359 359 359 358 360 360 361 361 364 362 361 360 359 360 361 360 361 364 363 361 357 358
357 356 356 356 355 354 353 352 353 354 353 352 353 351 352 356 355 355 356 357 357 357 355 356 356 356 359 359 361 360 359 359 357 359 360 359 361 360 361 360 361 358
358 357 356 355 355 353 352 351 351 352 353 353 352 351 351 352 354 356 355 356 354 354 354 355 356 355 356 358 358 358 358 361 361 358 357 358 358 357 356 359 360 359
358 356 354 353 353 353 350 350 351 351 353 352 351 351 352 351 351 352 355 355 354 354 354 354 356 357 356 356 357 357 357 356 356 359 358 358 358 358 358 357 355 357
356 354 353 353 353 355 353 350 349 350 352 352 351 349 351 352 352 351 352 356 354 354 354 353 357 356 356 355 356 357 356 355 355 355 356 358 357 357 358 357 356 354
353 354 353 353 352 351 346 346 348 346 350 350 350 348 349 350 353 352 351 353 355 355 358 355 358 356 354 354 356 358 357 356 355 354 356 356 356 356 362 355 354 354
348 348 350 349 351 351 351 353 349 348 348 349 349 348 347 349 349 353 353 353 353 353 355 357 356 357 355 353 353 354 356 356 356 354 353 355 357 356 356 357 356 355
351 351 350 351 353 353 353 353 352 352 350 350 349 348 348 347 349 350 355 355 354 353 353 355 356 356 356 356 354 353 352 353 353 355 355 354 353 354 355 356 355 354
352 354 353 352 353 352 352 353 353 351 353 355 355 348 347 347 348 349 349 356 355 354 353 354 355 355 355 357 356 355 354 353 351 352 353 353 352 352 353 352 352 353
350 351 353 352 352 351 350 350 353 353 356 357 356 353 349 347 346 349 349 349 354 354 354 355 355 355 355 356 357 355 354 353 353 352 351 351 351 351 352 352 352 352
348 352 354 353 350 350 349 350 351 357 358 357 356 355 353 352 351 347 348 348 348 352 353 354 354 356 357 349 353 357 355 354 354 352 351 350 350 349 349 351 352 351
349 351 352 350 353 355 354 356 358 358 357 356 352 352 353 353 352 350 349 346 348 348 350 352 353 354 348 337 339 346 357 355 353 352 350 349 348 348 348 348 348 349
348 349 348 348 348 347 348 350 354 353 351 350 351 353 352 354 352 352 351 352 350 348 347 349 351 349 337 334 335 336 346 356 354 353 353 351 349 348 349 349 348 347
347 348 348 348 348 348 349 351 352 352 352 353 356 356 355 353 351 352 351 352 352 351 352 352 348 342 332 331 332 332 334 347 354 354 352 351 350 350 349 349 349 348
343 345 348 348 348 349 348 347 350 350 352 355 356 355 353 354 354 353 353 351 352 352 350 351 351 349 333 326 326 328 331 337 352 353 353 352 351 349 349 349 348 348
337 341 344 348 347 348 348 347 347 346 348 350 355 356 354 353 353 352 353 353 352 352 351 351 352 341 334 327 321 321 325 332 348 352 352 351 351 349 348 348 348 349
333 336 339 341 345 346 345 346 348 349 349 352 354 355 356 355 355 354 353 352 352 352 351 351 352 336 331 330 323 318 323 333 341 347 350 350 349 349 348 348 348 348
339 338 339 341 344 343 343 344 346 349 351 353 351 352 352 353 353 354 354 354 353 353 351 350 351 342 332 323 322 321 323 332 338 342 346 348 348 347 347 346 346 346
339 339 337 337 336 338 340 341 342 343 346 349 349 350 349 350 352 353 354 355 355 354 354 352 351 346 320 325 323 319 326 333 337 340 341 344 347 349 348 347 348 356
332 336 335 334 333 333 339 338 339 340 342 345 347 347 348 349 351 350 351 352 353 353 357 355 354 344 323 326 328 319 326 337 340 341 341 342 344 347 349 350 350 355
325 332 337 338 335 335 337 336 340 340 341 343 343 343 343 346 348 348 347 348 350 351 354 353 351 351 345 323 323 318 320 342 343 343 342 342 344 345 346 348 350 351
Wind_Speed
6 4 5 5 6 5 6 6 5 4 5 5 6 5 6 6 7 5 7 5 6 6 5 4 4 3 3 2 3 3 2 0 0 1 1 3 3 2 2 3 3 3
6 5 4 4 5 3 5 6 6 5 5 5 5 5 4 5 6 5 7 6 5 6 6 5 5 4 4 4 4 4 2 1 1 1 1 0 3 3 4 3 3 2
6 5 5 5 6 5 5 6 6 6 5 6 6 6 5 6 5 5 5 6 6 6 6 6 5 5 4 4 4 3 4 3 2 1 0 1 2 3 3 3 3 4
7 6 6 6 5 6 5 5 6 6 6 6 5 6 6 6 6 6 5 6 6 5 6 6 6 4 4 4 4 4 4 4 4 2 1 1 2 2 2 3 3 1
8 7 6 6 5 5 5 5 6 5 5 7 7 4 6 5 7 6 5 6 6 4 5 6 6 6 5 4 4 4 3 4 3 3 3 3 3 2 3 3 3 2
7 6 5 6 6 5 7 6 5 5 5 5 7 6 4 5 7 7 6 6 5 5 6 6 5 6 6 5 5 5 4 4 4 4 4 4 4 3 4 3 4 3
9 8 7 6 6 5 6 7 6 5 6 4 5 6 6 4 7 6 7 7 6 5 5 6 5 5 5 5 6 5 5 5 4 5 5 4 4 4 3 2 2 3
2 4 6 4 4 5 5 6 6 5 5 5 5 6 6 6 6 5 6 7 6 6 5 5 7 6 6 5 6 6 5 4 4 4 5 4 4 4 5 4 3 3
5 4 4 4 3 2 5 5 5 5 4 6 5 5 6 6 7 6 6 6 6 6 7 5 6 7 6 6 6 6 6 5 4 4 5 5 4 5 5 4 4 3
4 4 4 3 3 2 3 3 5 4 4 4 5 4 6 5 6 7 6 6 7 6 8 6 6 6 6 6 7 7 6 5 5 4 4 5 6 5 4 4 4 4
4 5 5 8 11 13 16 18 14 7 5 6 5 5 5 6 5 6 7 7 7 7 5 6 6 7 7 7 5 6 6 7 6 5 4 4 5 5 5 5 5 5
8 6 6 3 4 6 6 1 4 9 14 7 8 7 5 7 8 7 8 8 8 7 6 5 5 6 7 6 7 5 6 6 6 6 5 4 4 5 6 5 5 6
2 3 3 3 2 5 5 5 4 3 3 12 8 9 9 5 9 9 7 8 9 9 8 7 6 6 5 6 6 6 6 6 6 6 5 6 4 5 5 5 5 5
4 3 3 3 4 5 4 4 4 5 4 7 10 9 10 8 7 10 8 8 9 8 9 8 7 6 6 6 6 6 6 5 6 6 6 6 6 6 6 5 5 5
4 4 2 3 4 4 4 6 2 1 1 2 6 6 3 7 7 9 9 9 8 9 9 8 8 8 7 7 7 7 7 6 6 7 7 7 7 7 7 7 7 6
3 2 2 2 1 2 2 2 2 2 2 1 3 4 2 4 5 2 9 10 9 8 9 8 8 7 9 14 12 8 8 8 7 6 7 7 7 7 7 7 8 8
3 2 2 3 2 4 3 3 0 1 2 2 2 3 2 3 2 4 4 4 10 10 10 9 8 8 13 14 15 15 10 8 9 8 6 7 7 8 8 8 7 7
4 4 3 3 3 2 0 2 2 1 2 2 2 1 1 3 3 2 2 2 2 2 6 8 8 12 15 15 16 16 13 9 8 8 8 7 7 8 8 7 8 7
3 4 4 5 6 5 5 5 4 3 2 2 2 0 1 1 2 3 3 2 0 0 2 2 3 7 13 15 16 17 18 14 8 8 8 8 7 7 7 8 7 7
5 5 4 5 5 5 5 5 7 3 3 2 2 3 2 1 1 2 3 3 3 2 1 3 4 5 7 12 14 17 18 16 10 10 9 9 10 9 7 7 8 8
7 6 6 6 6 5 4 2 5 4 2 3 3 3 2 3 2 3 3 3 3 2 4 6 4 4 4 4 10 12 14 13 10 9 9 9 9 10 10 9 8 9
6 8 9 8 6 3 3 3 5 3 2 3 3 3 3 2 3 2 3 4 3 3 4 6 7 10 9 4 5 10 12 7 8 7 8 9 9 8 8 8 8 8
1 1 2 3 2 1 2 4 5 3 3 3 3 3 4 4 3 3 3 4 3 2 3 4 5 8 11 12 9 2 2 4 5 8 8 8 9 7 7 6 6 5
2 2 1 1 2 3 1 1 3 5 5 5 4 4 3 4 4 4 4 3 3 3 3 4 5 2 9 3 6 10 9 4 4 3 6 10 10 9 8 8 9 14
3 3 2 2 3 4 2 0 1 2 2 3 3 4 4 3 3 3 4 5 4 4 5 6 5 2 7 8 9 12 10 7 8 7 7 9 8 9 9 9 9 11
5 4 3 3 4 5 3 2 2 2 3 3 3 3 4 4 3 2 4 4 5 4 4 1 3 7 10 12 7 4 7 3 2 3 6 8 7 8 9 9 10 10
Wind_Direction
198 186 179 171 178 167 169 168 178 178 180 172 170 192 173 174 187 168 176 178 164 173 167 176 179 180 212 166 140 141 123 149 126 160 174 167 199 250 279 288 280 275
197 190 181 171 180 177 175 170 179 179 187 183 183 186 183 172 183 160 171 179 168 173 170 175 188 186 201 172 161 160 148 153 234 237 129 210 222 215 255 271 282 289
188 187 185 181 182 192 185 181 175 187 186 189 189 188 181 179 180 171 170 170 183 171 172 172 186 193 193 172 167 165 163 160 215 252 150 256 264 218 236 281 300 254
189 187 187 190 187 192 194 180 186 190 188 192 194 187 190 172 173 181 176 178 177 179 177 174 177 189 190 177 168 167 177 181 196 201 190 259 271 248 246 244 277 265
190 191 186 190 193 192 197 192 192 192 188 190 200 190 186 171 169 180 169 173 176 180 182 178 182 184 192 180 173 178 181 186 199 186 212 235 248 257 266 246 259 301
193 194 192 187 193 191 194 202 201 197 199 185 193 192 202 173 176 173 171 172 183 185 183 183 184 188 189 181 179 187 192 198 207 197 206 219 230 232 249 239 232 246
190 192 200 191 197 198 195 196 201 199 199 198 186 187 200 169 180 172 171 177 178 189 174 188 191 188 191 182 178 195 202 204 212 199 204 219 212 240 257 238 199 219
166 171 172 177 200 201 195 196 199 202 194 195 192 196 191 185 172 173 180 176 184 183 197 186 188 194 193 183 187 191 208 205 212 196 204 218 222 228 243 262 261 217
185 191 182 190 203 229 201 193 199 205 196 201 204 203 194 187 187 177 172 187 185 185 200 201 191 192 194 181 190 195 195 209 222 203 198 209 212 220 228 234 245 225
188 179 187 193 209 265 302 225 195 202 203 207 213 201 197 193 189 188 184 177 190 191 194 204 193 194 192 186 188 190 198 204 219 218 209 206 211 216 219 219 227 239
342 1 21 25 29 30 19 358 341 317 215 208 215 214 200 191 185 191 192 189 191 190 187 201 190 192 194 198 189 189 194 201 214 222 212 214 216 213 214 215 226 223
37 56 55 79 102 88 91 86 359 337 321 256 202 216 214 201 192 188 190 196 198 196 195 197 192 179 193 200 199 188 188 202 207 217 226 212 217 223 225 218 213 218
140 118 146 134 105 110 122 145 156 196 309 306 258 208 214 204 205 195 187 191 197 196 199 196 197 195 184 194 199 198 195 196 201 207 214 225 228 225 226 220 217 218
124 110 107 140 145 141 167 164 202 179 184 279 305 243 207 215 196 201 196 185 191 196 199 194 194 200 201 195 199 199 195 201 208 206 210 216 220 225 232 234 229 229
86 85 101 118 128 168 184 212 210 15 88 303 305 304 259 233 201 190 201 199 191 192 192 194 196 203 203 202 200 206 203 210 204 210 211 210 215 220 222 226 229 232
71 85 126 155 147 188 238 227 162 202 222 225 281 295 355 32 352 262 196 199 201 194 192 194 197 202 207 205 204 203 206 212 214 209 211 209 208 217 225 223 226 229
78 62 77 103 80 60 22 332 20 168 237 218 237 276 319 335 41 13 343 248 206 197 196 201 202 202 198 205 209 209 207 209 211 219 213 212 210 207 218 224 228 228
74 66 55 59 80 98 178 269 248 202 214 249 262 302 354 355 11 349 312 353 344 267 225 214 208 202 199 200 208 213 212 214 217 221 223 220 220 216 217 218 224 226
45 59 53 50 37 28 6 329 317 312 328 331 312 30 36 7 313 319 317 326 272 280 321 315 288 242 215 204 208 210 211 211 217 217 221 228 227 228 224 222 221 227
30 36 52 50 38 32 35 358 315 307 312 299 299 313 301 277 281 306 309 310 322 324 259 251 267 281 242 231 224 217 213 210 216 212 215 220 223 225 227 226 223 222
13 20 28 32 41 26 17 356 287 286 318 333 331 319 327 330 317 321 309 309 320 331 326 312 287 305 341 259 243 242 243 224 224 222 221 221 220 220 222 222 222 225
25 14 17 356 353 26 343 290 285 298 331 335 335 335 320 309 305 289 287 296 296 304 311 305 304 319 325 330 237 243 243 237 253 251 238 233 229 226 223 223 220 221
288 10 58 314 302 294 262 296 310 334 348 356 355 340 333 321 307 288 273 265 273 271 279 285 296 301 330 348 2 269 232 250 247 252 252 245 242 239 238 236 232 216
213 216 209 212 279 275 269 343 341 354 354 349 333 337 333 333 321 316 303 287 282 283 252 262 272 320 69 77 96 132 160 176 189 203 260 267 254 237 229 232 236 238
316 280 243 248 252 270 257 171 255 281 302 311 321 329 312 295 292 298 303 296 284 271 274 264 267 177 183 213 195 163 165 186 190 191 209 231 241 249 241 232 233 235
329 324 308 291 285 273 267 224 191 247 260 270 272 262 275 284 302 309 305 307 308 298 288 119 232 243 231 224 221 182 178 201 261 212 236 246 248 247 245 239 234 234